sat.trackr.live / text

‹ back to catalog

STARLINK-36367

NORAD 67629 · 2026-020N

PAYLOAD ACTIVE UNKNOWN

§ Identity

Operator
Country
US
Launch date
2026-01-30
Launch site
AFETR
Launch vehicle
Mass (kg)
RCS (m²)

Purposes: comms

External: N2YO · Heavens-Above · Gunter

§ Orbital elements

Epoch: 2026-05-25T04:08:22.134624Z

Period
94.27 min
Inclination
43.0068°
Eccentricity
0.0002025
Mean motion
15.27575708 rev/d
Perigee alt
481.7 km
Apogee alt
484.5 km
Semi-major
6,861.2 km
B*
5.1588e-4
RAAN
67.5816°
Arg perigee
267.2366°
Mean anomaly
92.8254°
Rev number
1,781

§ Raw data

STARLINK-363671 67629U 26020N   26145.17247841  .00013959  00000+0  51588-3 0  99982 67629  43.0068  67.5816 0002025 267.2366  92.8254 15.27575708 17811

JSON: /api/v1/satellites/67629 · /tle

For live sub-satellite position, see the globe view (requires WebGL).

§ Visibility from observer

Set your observer location to see the next 7 days of passes ≥ 10°. The values pass through the URL so the page stays shareable.

No JS? Fill the form by hand. The geolocation button needs JavaScript.